Lerna, IL

5:26 AM CDT on August 28, 2016 (GMT -0500)
Coles County Memorial

Weather History for KMTO - November, 2011

Change the Weather History Date:

Tuesday, November 29, 2011

  Actual Average Record
Temperature  
Mean Temperature 37 °F 37 °F  
Max Temperature 43 °F 45 °F 68 °F (1998)
Min Temperature 31 °F 30 °F 5 °F (1958)
Degree Days  
Heating Degree Days 28 28  
Month to date heating degree days 485 626  
Since 1 July heating degree days 890 1030  
Cooling Degree Days 0 0  
Month to date cooling degree days 0 0  
Year to date cooling degree days 1308 1057  
Moisture  
Dew Point 36 °F    
Average Humidity 88    
Maximum Humidity 100    
Minimum Humidity 75    
Precipitation  
Precipitation 1.12 in 0.11 in 1.12 in (2011)
Month to date precipitation 4.30 3.37  
Year to date precipitation 34.55 35.17  
Sea Level Pressure  
Sea Level Pressure 29.84 in    
Wind  
Wind Speed 20 mph (North)    
Max Wind Speed 32 mph    
Max Gust Speed 40 mph    
Visibility 6 miles    
Events Rain    
T = Trace of Precipitation, MM = Missing Value Source: NWS Daily Summary

Daily Weather History Graph

Daily Weather History Graph

Search for Another Location

Airport or City:

Trip Planner

Search our weather history database for the weather conditions in past years. The results will help you decide how hot, cold, wet, or windy it might be!

Date:

Astronomy

Nov. 29, 2011 Rise Set
Actual Time 6:52 AM CST 4:30 PM CST
Civil Twilight 6:22 AM CST 5:00 PM CST
Nautical Twilight 5:49 AM CST 5:33 PM CST
Astronomical Twilight 5:16 AM CST 6:05 PM CST
Moon 10:38 AM CST (11/29) 9:22 PM CST (11/29)
Length of Visible Light 10h 37m
Length of Day
9h 38m
Waxing Crescent, 24% of the Moon is Illuminated
Nov 29
Waxing Crescent
Dec 2
First Quarter
Dec 10
Full
Dec 17
Last Quarter
Dec 24
New

Hourly Weather History & Observations

Time (CST) Temp. Windchill Dew Point Humidity Pressure Visibility Wind Dir Wind Speed Gust Speed Precip Events Conditions
12:53 AM 39.0 °F 29.0 °F 37.0 °F 93% 29.75 in 6.0 mi NNE 20.7 mph 29.9 mph 0.06 in Rain Light Rain
2:53 AM 39.0 °F 28.5 °F 37.9 °F 96% 29.72 in 6.0 mi NNE 23.0 mph 31.1 mph 0.01 in   Overcast
3:25 AM 39.2 °F 28.5 °F 37.4 °F 93% 29.71 in 2.5 mi NNE 24.2 mph 28.8 mph 0.01 in   Overcast
3:53 AM 39.0 °F 29.3 °F 37.9 °F 96% 29.72 in 2.0 mi NNE 19.6 mph 29.9 mph 0.03 in   Overcast
4:53 AM 39.0 °F 29.3 °F 37.0 °F 93% 29.74 in 2.0 mi NNE 19.6 mph 26.5 mph 0.05 in Rain Heavy Rain
5:53 AM 39.0 °F 30.3 °F 37.0 °F 93% 29.76 in 2.5 mi NNE 16.1 mph 23.0 mph 0.24 in Rain Rain
5:57 AM 39.2 °F 30.2 °F 37.4 °F 93% 29.74 in 3.0 mi NNE 17.3 mph - 0.01 in Rain Rain
6:04 AM 39.2 °F 30.2 °F 37.4 °F 93% 29.74 in 2.5 mi North 17.3 mph - 0.04 in Rain Heavy Rain
6:18 AM 39.2 °F 30.5 °F 37.4 °F 93% 29.74 in 4.0 mi North 16.1 mph - 0.07 in Rain Heavy Rain
6:49 AM 39.2 °F 29.8 °F 37.4 °F 93% 29.76 in 4.0 mi North 18.4 mph - 0.14 in Rain Rain
6:53 AM 39.0 °F 29.9 °F 37.0 °F 93% 29.77 in 5.0 mi North 17.3 mph - 0.15 in Rain Rain
7:39 AM 39.2 °F 30.5 °F 37.4 °F 93% 29.78 in 3.0 mi North 16.1 mph - 0.07 in Rain Rain
7:53 AM 39.0 °F 29.3 °F 37.9 °F 96% 29.79 in 4.0 mi North 19.6 mph - 0.09 in Rain Rain
8:26 AM 39.2 °F 30.2 °F 37.4 °F 93% 29.78 in 4.0 mi North 17.3 mph 23.0 mph 0.03 in Rain Rain
8:53 AM 39.0 °F 28.8 °F 37.0 °F 93% 29.81 in 2.5 mi North 21.9 mph 27.6 mph 0.09 in Rain Heavy Rain
9:35 AM 39.2 °F 28.0 °F 37.4 °F 93% 29.81 in 2.5 mi North 26.5 mph 33.4 mph 0.15 in Rain Heavy Rain
9:45 AM 37.4 °F 26.9 °F 37.4 °F 100% 29.81 in 3.0 mi North 20.7 mph 32.2 mph 0.18 in Rain Heavy Rain
9:53 AM 37.9 °F 27.3 °F 37.0 °F 97% 29.83 in 3.0 mi North 21.9 mph 32.2 mph 0.21 in Rain Rain
10:12 AM 37.4 °F 26.4 °F 35.6 °F 93% 29.82 in 2.5 mi North 23.0 mph 32.2 mph 0.07 in Rain Heavy Rain
10:31 AM 37.4 °F 27.5 °F 35.6 °F 93% 29.82 in 3.0 mi North 18.4 mph 26.5 mph 0.14 in Rain Heavy Rain
11:02 AM 37.4 °F 28.2 °F 35.6 °F 93% 29.82 in 5.0 mi North 16.1 mph - 0.01 in Rain Rain
11:18 AM 37.4 °F 28.2 °F 35.6 °F 93% 29.82 in 6.0 mi North 16.1 mph - 0.03 in Rain Rain
11:53 AM 37.0 °F 27.0 °F 36.0 °F 96% 29.84 in 4.0 mi North 18.4 mph 25.3 mph 0.11 in Rain Rain
12:53 PM 39.0 °F 28.8 °F 37.0 °F 93% 29.84 in 5.0 mi North 21.9 mph 32.2 mph 0.07 in Rain Rain
1:09 PM 39.2 °F 29.0 °F 37.4 °F 93% 29.82 in 9.0 mi North 21.9 mph 32.2 mph 0.01 in Rain Light Rain
1:53 PM 41.0 °F 32.5 °F 39.0 °F 93% 29.84 in 10.0 mi North 17.3 mph - 0.01 in   Overcast
2:33 PM 42.8 °F 34.3 °F 39.2 °F 87% 29.84 in 10.0 mi North 19.6 mph 31.1 mph N/A   Overcast
2:53 PM 42.1 °F 33.1 °F 39.0 °F 89% 29.86 in 10.0 mi NNW 20.7 mph 28.8 mph N/A   Overcast
3:38 PM 41.0 °F 31.1 °F 37.4 °F 87% 29.87 in 10.0 mi NNW 23.0 mph 31.1 mph N/A   Overcast
3:53 PM 39.9 °F 29.2 °F 37.0 °F 89% 29.89 in 10.0 mi NNW 25.3 mph 33.4 mph N/A   Overcast
4:02 PM 39.2 °F 28.7 °F 37.4 °F 93% 29.89 in 10.0 mi NNW 23.0 mph 33.4 mph N/A   Overcast
4:17 PM 39.2 °F 27.6 °F 37.4 °F 93% 29.89 in 10.0 mi NNW 28.8 mph 34.5 mph N/A   Overcast
4:53 PM 39.0 °F 27.2 °F 36.0 °F 89% 29.93 in 10.0 mi NNW 29.9 mph 39.1 mph N/A   Overcast
5:14 PM 37.4 °F 26.1 °F 35.6 °F 93% 29.92 in 10.0 mi NNW 24.2 mph 34.5 mph N/A   Overcast
5:53 PM 37.0 °F 25.4 °F 34.0 °F 89% 29.96 in 10.0 mi NNW 25.3 mph 36.8 mph N/A   Overcast
6:53 PM 36.0 °F 23.5 °F 34.0 °F 93% 29.99 in 10.0 mi NNW 27.6 mph 34.5 mph N/A   Overcast
7:53 PM 35.1 °F 23.8 °F 28.9 °F 78% 30.01 in 10.0 mi NNW 20.7 mph 28.8 mph N/A   Overcast
8:53 PM 32.0 °F 20.8 °F 27.0 °F 82% 30.02 in 10.0 mi NNW 17.3 mph - N/A   Partly Cloudy
9:53 PM 32.0 °F 20.5 °F 26.1 °F 79% 30.02 in 10.0 mi NNW 18.4 mph - N/A   Clear
10:53 PM 30.9 °F 20.7 °F 26.1 °F 82% 30.02 in 10.0 mi NW 13.8 mph - N/A   Clear
11:53 PM 30.9 °F 20.7 °F 25.0 °F 79% 30.02 in 10.0 mi NW 13.8 mph - N/A   Clear